Location: Guferjoch
(46.7462°N, 8.4506°E)
Time: 10:28:37
(UTC+00:00)

X-37B - Visible Passes

Search period start: 04 March 2021 00:00
Search period end: 14 March 2021 00:00
Orbit: 383 x 391 km, 45.0° (Epoch: 27 February)

Date Brightness Start Highest point End Pass type
(mag) Time Alt. Az. Time Alt. Az. Time Alt. Az.
11 Mar 2.9 19:17:20 10° SSW 19:18:22 16° SSW 19:18:22 16° SSW visible
12 Mar 2.5 18:19:45 10° S 18:21:50 16° SSE 18:23:05 14° ESE visible
12 Mar 3.5 19:54:55 10° WSW 19:55:23 13° WSW 19:55:23 13° WSW visible
13 Mar 1.3 18:56:46 10° SW 18:59:45 35° SSE 18:59:58 35° SSE visible
